Weather History for Saginaw Browne, MI

Change the Weather History Date:

Saturday, September 28, 2013

  Actual Average (KMBS) Record (KMBS)
Temperature  
Mean Temperature 60 °F 56 °F  
Max Temperature 77 °F 67 °F 80 °F (2013)
Min Temperature 44 °F 46 °F 33 °F (2000)
Degree Days  
Heating Degree Days 4    
Month to date heating degree days  
Since 1 July heating degree days  
Cooling Degree Days 0    
Month to date cooling degree days  
Year to date cooling degree days  
Growing Degree Days 10 (Base 50)    
Moisture  
Dew Point 48 °F    
Average Humidity 67    
Maximum Humidity 100    
Minimum Humidity 29    
Precipitation  
Precipitation 0.00 in 0.12 in 0.37 in (2005)
Month to date precipitation 3.60  
Year to date precipitation 24.12  
Snow  
Snow 0.00 in - - ()
Month to date snowfall  
Since 1 July snowfall  
Since 1 September snowfall  
Snow Depth -    
Sea Level Pressure  
Sea Level Pressure 30.12 in    
Wind  
Wind Speed 5 mph (SSE)    
Max Wind Speed 16 mph    
Max Gust Speed 21 mph    
Visibility 8 miles    
Events Fog    
T = Trace of Precipitation, MM = Missing Value Source: NWS Daily Summary

Daily Weather History Graph

Daily Weather History Graph

Search for Another Location

Airport:

Trip Planner

Search our weather history database for the weather conditions in past years. The results will help you decide how hot, cold, wet, or windy it might be!

Date:

Astronomy

Sep. 28, 2013 Rise Set
Actual Time 7:29 AM EDT 7:21 PM EDT
Civil Twilight 7:01 AM EDT 7:49 PM EDT
Nautical Twilight 6:28 AM EDT 8:23 PM EDT
Astronomical Twilight 5:54 AM EDT 8:56 PM EDT
Moon 1:07 AM EDT (9/28) 3:48 PM EDT (9/28)
Length of Visible Light 12h 48m
Length of Day
11h 51m
Last Quarter, 36% of the Moon is Illuminated
Sep 28
Last Quarter
Oct 4
New
Oct 11
First Quarter
Oct 18
Full
Oct 26
Last Quarter

Hourly Weather History & Observations

Time (EDT) Temp. Dew Point Humidity Pressure Visibility Wind Dir Wind Speed Gust Speed Precip Events Conditions
12:14 AM 53.6 °F 50.0 °F 88% 30.20 in 10.0 mi SSE 3.5 mph - N/A   Clear
12:34 AM 53.6 °F 50.0 °F 88% 30.19 in 10.0 mi Calm Calm - N/A   Clear
12:55 AM 53.6 °F 50.0 °F 88% 30.20 in 10.0 mi Calm Calm - N/A   Clear
1:14 AM 53.6 °F 50.0 °F 88% 30.20 in 10.0 mi Calm Calm - N/A   Clear
1:34 AM 51.8 °F 50.0 °F 94% 30.21 in 10.0 mi Calm Calm - N/A   Clear
1:55 AM 51.8 °F 48.2 °F 88% 30.21 in 10.0 mi Calm Calm - N/A   Clear
2:14 AM 50.0 °F 50.0 °F 100% 30.21 in 10.0 mi Calm Calm - N/A   Clear
2:35 AM 48.2 °F 46.4 °F 93% 30.20 in 10.0 mi Calm Calm - N/A   Clear
2:54 AM 50.0 °F 48.2 °F 94% 30.19 in 10.0 mi Calm Calm - N/A   Clear
3:14 AM 50.0 °F 50.0 °F 100% 30.19 in 10.0 mi ESE 3.5 mph - N/A   Clear
3:35 AM 46.4 °F 46.4 °F 100% 30.19 in 10.0 mi Calm Calm - N/A   Clear
3:54 AM 46.4 °F 46.4 °F 100% 30.19 in 10.0 mi Calm Calm - N/A   Clear
4:14 AM 46.4 °F 46.4 °F 100% 30.19 in 10.0 mi Calm Calm - N/A   Clear
4:34 AM 44.6 °F 44.6 °F 100% 30.19 in 1.0 mi Calm Calm - N/A   Mist
4:54 AM 46.4 °F 46.4 °F 100% 30.19 in 5.0 mi Calm Calm - N/A   Clear
5:14 AM 46.4 °F 44.6 °F 93% 30.19 in 0.2 mi Calm Calm - N/A Fog Fog
5:34 AM 44.6 °F 44.6 °F 100% 30.19 in 0.5 mi Calm Calm - N/A Fog Fog
5:54 AM 51.8 °F 51.8 °F 100% 30.19 in 2.0 mi ESE 3.5 mph - N/A   Overcast
6:14 AM 50.0 °F 50.0 °F 100% 30.19 in 3.0 mi ESE 4.6 mph - N/A   Mostly Cloudy
6:34 AM 50.0 °F 50.0 °F 100% 30.19 in 1.8 mi Calm Calm - N/A   Mostly Cloudy
6:54 AM 50.0 °F 50.0 °F 100% 30.19 in 0.2 mi Calm Calm - N/A Fog Fog
7:14 AM 50.0 °F 50.0 °F 100% 30.19 in 0.5 mi Calm Calm - N/A Fog Fog
7:34 AM 50.0 °F 50.0 °F 100% 30.19 in 0.2 mi Calm Calm - N/A Fog Fog
7:54 AM 48.2 °F 48.2 °F 100% 30.20 in 0.2 mi Calm Calm - N/A Fog Fog
8:14 AM 50.0 °F 50.0 °F 100% 30.20 in 0.2 mi Calm Calm - N/A Fog Fog
8:34 AM 51.8 °F 51.8 °F 100% 30.19 in 1.5 mi Calm Calm - N/A   Mostly Cloudy
8:54 AM 55.4 °F 55.4 °F 100% 30.18 in 3.0 mi SE 4.6 mph - N/A   Clear
9:14 AM 59.0 °F 59.0 °F 100% 30.19 in 5.0 mi SE 6.9 mph - N/A   Clear
9:34 AM 60.8 °F 60.8 °F 100% 30.19 in 7.0 mi SSE 9.2 mph - N/A   Clear
9:54 AM 60.8 °F 59.0 °F 94% 30.19 in 10.0 mi SSE 8.1 mph - N/A   Clear
10:15 AM 64.4 °F 57.2 °F 77% 30.19 in 10.0 mi SSE 9.2 mph - N/A   Clear
10:34 AM 66.2 °F 55.4 °F 68% 30.19 in 10.0 mi South 10.4 mph - N/A   Clear
10:54 AM 68.0 °F 53.6 °F 60% 30.19 in 10.0 mi South 10.4 mph - N/A   Clear
11:14 AM 69.8 °F 53.6 °F 56% 30.18 in 10.0 mi South 9.2 mph - N/A   Clear
11:34 AM 71.6 °F 51.8 °F 50% 30.17 in 10.0 mi SSE 11.5 mph - N/A   Clear
11:54 AM 71.6 °F 51.8 °F 50% 30.16 in 10.0 mi South 13.8 mph 20.7 mph N/A   Clear
12:14 PM 73.4 °F 50.0 °F 44% 30.16 in 10.0 mi SSE 11.5 mph 17.3 mph N/A   Clear
12:34 PM 73.4 °F 50.0 °F 44% 30.14 in 10.0 mi SSE 11.5 mph 17.3 mph N/A   Clear
12:54 PM 73.4 °F 48.2 °F 41% 30.14 in 10.0 mi SSE 10.4 mph 19.6 mph N/A   Clear
1:14 PM 75.2 °F 46.4 °F 36% 30.13 in 10.0 mi SSE 13.8 mph 17.3 mph N/A   Clear
1:34 PM 75.2 °F 46.4 °F 36% 30.12 in 10.0 mi South 12.7 mph 16.1 mph N/A   Clear
1:54 PM 77.0 °F 44.6 °F 32% 30.11 in 10.0 mi South 12.7 mph 18.4 mph N/A   Clear
2:14 PM 77.0 °F 44.6 °F 32% 30.09 in 10.0 mi SSW 12.7 mph 17.3 mph N/A   Clear
2:34 PM 77.0 °F 44.6 °F 32% 30.09 in 10.0 mi SSE 13.8 mph 17.3 mph N/A   Clear
2:54 PM 77.0 °F 42.8 °F 29% 30.08 in 10.0 mi South 13.8 mph 20.7 mph N/A   Clear
3:14 PM 77.0 °F 42.8 °F 29% 30.06 in 10.0 mi SSW 11.5 mph - N/A   Clear
3:34 PM 77.0 °F 44.6 °F 32% 30.06 in 10.0 mi SSE 11.5 mph 18.4 mph N/A   Clear
3:54 PM 77.0 °F 44.6 °F 32% 30.05 in 10.0 mi South 10.4 mph 15.0 mph N/A   Clear
4:14 PM 77.0 °F 42.8 °F 29% 30.04 in 10.0 mi South 11.5 mph 18.4 mph N/A   Clear
4:35 PM 77.0 °F 42.8 °F 29% 30.04 in 10.0 mi South 8.1 mph 18.4 mph N/A   Clear
4:54 PM 77.0 °F 44.6 °F 32% 30.03 in 10.0 mi South 10.4 mph 18.4 mph N/A   Clear
5:14 PM 77.0 °F 42.8 °F 29% 30.03 in 10.0 mi SSE 16.1 mph 19.6 mph N/A   Clear
5:35 PM 77.0 °F 42.8 °F 29% 30.03 in 10.0 mi South 11.5 mph 17.3 mph N/A   Clear
5:54 PM 75.2 °F 44.6 °F 34% 30.03 in 10.0 mi South 10.4 mph - N/A   Clear
6:14 PM 73.4 °F 44.6 °F 36% 30.03 in 10.0 mi South 10.4 mph - N/A   Clear
6:35 PM 71.6 °F 46.4 °F 41% 30.03 in 10.0 mi SSE 9.2 mph - N/A   Clear
6:54 PM 71.6 °F 46.4 °F 41% 30.03 in 10.0 mi South 6.9 mph - N/A   Clear
7:14 PM 69.8 °F 48.2 °F 46% 30.03 in 10.0 mi SSE 6.9 mph - N/A   Clear
7:35 PM 68.0 °F 48.2 °F 49% 30.03 in 10.0 mi SE 6.9 mph - N/A   Clear
7:54 PM 66.2 °F 46.4 °F 49% 30.03 in 10.0 mi SE 8.1 mph - N/A   Clear
8:14 PM 64.4 °F 46.4 °F 52% 30.03 in 10.0 mi SSE 6.9 mph - N/A   Clear
8:35 PM 64.4 °F 46.4 °F 52% 30.02 in 10.0 mi SE 9.2 mph - N/A   Clear
8:54 PM 64.4 °F 46.4 °F 52% 30.02 in 10.0 mi SSE 8.1 mph - N/A   Clear
9:14 PM 64.4 °F 46.4 °F 52% 30.02 in 10.0 mi SSE 9.2 mph - N/A   Clear
9:35 PM 62.6 °F 46.4 °F 55% 30.01 in 10.0 mi SSE 9.2 mph - N/A   Clear
9:54 PM 62.6 °F 48.2 °F 59% 30.01 in 10.0 mi SSE 11.5 mph - N/A   Clear
10:14 PM 62.6 °F 48.2 °F 59% 30.01 in 10.0 mi SSE 10.4 mph - N/A   Clear
10:34 PM 62.6 °F 48.2 °F 59% 30.00 in 10.0 mi SSE 9.2 mph - N/A   Clear
10:54 PM 60.8 °F 48.2 °F 63% 30.00 in 10.0 mi SSE 9.2 mph - N/A   Clear
11:14 PM 62.6 °F 50.0 °F 63% 29.99 in 10.0 mi SSE 10.4 mph - N/A   Clear
11:34 PM 62.6 °F 50.0 °F 63% 29.99 in 10.0 mi SSE 9.2 mph - N/A   Clear
11:54 PM 60.8 °F 50.0 °F 68% 29.99 in 10.0 mi South 5.8 mph - N/A   Clear